N5GAH-13 Weather Reports


Display with metric or nautical units.
time (UTC)temp
F
wind
direction
speed
MPH
gust
MPH
rain 1hr
in
rain 24hr
in
rain mn
in
humidity
%
barometer
mb
20260505212330 79 249 14.0 32.0 0.00 0.00 0.00 26 1013.8
20260505205330 78 260 11.0 20.0 0.00 0.00 0.00 28 1013.9
20260505202330 78 254 10.0 21.0 0.00 0.00 0.00 29 1014.3
20260505195330 79 252 12.0 21.0 0.00 0.00 0.00 29 1014.3
20260505192330 80 238 10.0 18.0 0.00 0.00 0.00 27 1014.1
20260505182330 79 241 7.0 11.0 0.00 0.00 0.00 29 1014.6
20260505175330 79 270 4.0 8.0 0.00 0.00 0.00 30 1014.7
20260505172330 78 267 5.0 12.0 0.00 0.00 0.00 31 1014.8
20260505165330 76 291 5.0 10.0 0.00 0.00 0.00 31 1014.9
20260505162330 76 287 5.0 10.0 0.00 0.00 0.00 33 1014.6
20260505152329 73 265 5.0 10.0 0.00 0.00 0.00 35 1014.6
20260505122330 65 258 3.0 6.0 0.00 0.00 0.00 42 1012.6
20260505115330 66 239 3.0 7.0 0.00 0.10 0.00 41 1012.4
20260505112330 67 233 4.0 8.0 0.00 0.10 0.00 40 1012.2
20260505092329 66 230 5.0 8.0 0.00 0.10 0.00 44 1012.0
20260505085329 68 226 5.0 8.0 0.00 0.10 0.00 40 1011.9
20260505082330 69 236 7.0 12.0 0.00 0.10 0.00 36 1012.0
20260505075330 69 245 8.0 14.0 0.00 0.10 0.00 36 1011.7
20260505072330 68 237 5.0 8.0 0.00 0.10 0.00 39 1011.9
20260505065330 69 247 4.0 8.0 0.00 0.10 0.00 38 1012.5
20260505062330 70 232 6.0 10.0 0.00 0.10 0.00 36 1012.5
20260505052330 71 243 8.0 14.0 0.00 0.10 0.00 33 1012.7
20260505035330 73 233 5.0 8.0 0.00 0.10 0.06 29 1012.7
20260505025330 76 240 6.0 11.0 0.00 0.10 0.06 25 1012.4
20260505022330 77 245 8.0 11.0 0.00 0.10 0.06 23 1012.2